QPF
0.09 0.22 0.08 0.09 0.04 0.05 0.07 0.04 0.09 0.03 0.02 0.02 0.04 0.07 0.03 0.00 0.00 0.00 0.00 0.00 0.00 0.00 0.00 0.00 0.00 0.00 0.00 0.00 0.00 0.00 0.00 0.00 0.00 0.00 0.00 0.02 0.05 0.05 0.05 0.02 0.02 0.01 0.01
0.24 0.93 0.58 0.70 0.43 0.24 0.19 0.15 0.12 0.15 0.09 0.08 0.07 0.06 0.04 0.01 0.00 0.00 0.00 0.00 0.00 0.00 0.00 0.00 0.00 0.00 0.00 0.00 0.00 0.00 0.00 0.00 0.00 0.00 0.00 0.00 0.00 0.01 0.00 0.00 0.00 0.00 0.00
0.50 0.69 0.59 0.37 0.20 0.20 0.21 0.12 0.16 0.19 0.15 0.14 0.10 0.08 0.05 0.03 0.01 0.00 0.00 0.00 0.00 0.00 0.00 0.00 0.00 0.00 0.00 0.00 0.00 0.00 0.00 0.00 0.00 0.01 0.01 0.01 0.01 0.00 0.00 0.00 0.00 0.00 0.00
0.61 0.37 0.15 0.03 0.01 0.01 0.06 0.05 0.03 0.01 0.01 0.04 0.06 0.08 0.07 0.07 0.04 0.00 0.00 0.00 0.00 0.00 0.00 0.00 0.00 0.00 0.00 0.00 0.00 0.00 0.00 0.00 0.00 0.00 0.00 0.01 0.01 0.00 0.00 0.00 0.00 0.00 0.00
0.34 0.26 0.12 0.12 0.07 0.09 0.07 0.07 0.04 0.00 0.00 0.00 0.05 0.08 0.12 0.10 0.08 0.04 0.01 0.00 0.00 0.00 0.00 0.00 0.00 0.00 0.00 0.00 0.00 0.00 0.00 0.00 0.00 0.00 0.00 0.00 0.00 0.00 0.00 0.00 0.00 0.00 0.00
0.03 0.01 0.00 0.03 0.03 0.02 0.05 0.06 0.06 0.01 0.01 0.01 0.06 0.14 0.16 0.13 0.12 0.06 0.02 0.00 0.00 0.00 0.00 0.00 0.00 0.00 0.00 0.00 0.00 0.00 0.00 0.00 0.00 0.00 0.00 0.00 0.00 0.00 0.00 0.00 0.00 0.00 0.00
0.00 0.00 0.00 0.00 0.00 0.00 0.00 0.00 0.00 0.00 0.01 0.06 0.16 0.22 0.26 0.17 0.16 0.13 0.06 0.03 0.01 0.00 0.00 0.00 0.00 0.00 0.00 0.00 0.00 0.00 0.00 0.00 0.00 0.00 0.00 0.00 0.00 0.00 0.00 0.00 0.00 0.00 0.00
0.00 0.00 0.00 0.00 0.00 0.00 0.00 0.00 0.00 0.00 0.01 0.07 0.12 0.13 0.24 0.21 0.25 0.24 0.18 0.08 0.03 0.02 0.00 0.01 0.01 0.00 0.00 0.00 0.00 0.00 0.00 0.00 0.00 0.00 0.00 0.00 0.00 0.00 0.00 0.00 0.00 0.00 0.00
0.00 0.00 0.00 0.00 0.00 0.00 0.00 0.00 0.00 0.00 0.02 0.05 0.08 0.13 0.12 0.13 0.17 0.21 0.21 0.15 0.07 0.06 0.16 0.19 0.11 0.04 0.05 0.03 0.02 0.03 0.01 0.00 0.02 0.01 0.00 0.00 0.00 0.00 0.00 0.00 0.00 0.00 0.00
0.00 0.00 0.00 0.00 0.00 0.00 0.00 0.00 0.00 0.00 0.01 0.05 0.17 0.22 0.09 0.06 0.07 0.07 0.06 0.07 0.09 0.07 0.10 0.09 0.06 0.04 0.08 0.07 0.02 0.01 0.01 0.00 0.01 0.00 0.00 0.00 0.00 0.00 0.00 0.00 0.00 0.00 0.00
0.00 0.00 0.00 0.00 0.00 0.01 0.05 0.06 0.01 0.00 0.00 0.01 0.06 0.11 0.08 0.05 0.05 0.06 0.08 0.06 0.03 0.03 0.02 0.02 0.05 0.07 0.05 0.06 0.09 0.02 0.01 0.02 0.02 0.00 0.00 0.00 0.00 0.00 0.00 0.00 0.00 0.00 0.00
0.00 0.00 0.00 0.00 0.00 0.00 0.00 0.04 0.06 0.06 0.01 0.01 0.03 0.03 0.04 0.03 0.02 0.04 0.05 0.03 0.10 0.06 0.03 0.05 0.07 0.09 0.09 0.06 0.06 0.03 0.03 0.03 0.01 0.01 0.00 0.00 0.00 0.00 0.00 0.00 0.00 0.00 0.00
0.00 0.00 0.00 0.00 0.00 0.00 0.00 0.00 0.00 0.00 0.00 0.01 0.05 0.06 0.08 0.05 0.04 0.03 0.03 0.04 0.03 0.03 0.03 0.02 0.03 0.02 0.01 0.02 0.04 0.06 0.09 0.06 0.05 0.03 0.00 0.00 0.00 0.00 0.00 0.00 0.00 0.00 0.00
0.00 0.00 0.00 0.00 0.00 0.00 0.00 0.00 0.00 0.00 0.00 0.00 0.00 0.00 0.00 0.00 0.00 0.00 0.00 0.00 0.00 0.00 0.02 0.03 0.04 0.04 0.03 0.01 0.03 0.04 0.04 0.05 0.08 0.09 0.05 0.04 0.05 0.03 0.01 0.00 0.00 0.00 0.01
0.00 0.00 0.00 0.00 0.00 0.00 0.00 0.00 0.00 0.00 0.00 0.00 0.00 0.00 0.00 0.00 0.00 0.00 0.00 0.00 0.00 0.00 0.00 0.00 0.00 0.01 0.01 0.01 0.00 0.00 0.00 0.00 0.01 0.04 0.06 0.06 0.07 0.06 0.02 0.01 0.01 0.01 0.00
0.00 0.00 0.00 0.00 0.00 0.00 0.00 0.00 0.00 0.00 0.00 0.00 0.00 0.00 0.00 0.00 0.00 0.00 0.00 0.00 0.00 0.00 0.00 0.00 0.00 0.00 0.00 0.00 0.00 0.00 0.00 0.00 0.00 0.00 0.01 0.03 0.05 0.04 0.03 0.04 0.08 0.06 0.05
0.00 0.00 0.00 0.00 0.00 0.00 0.00 0.00 0.00 0.00 0.00 0.00 0.00 0.00 0.00 0.00 0.00 0.00 0.00 0.00 0.00 0.00 0.00 0.00 0.00 0.00 0.00 0.00 0.00 0.00 0.00 0.00 0.00 0.00 0.00 0.01 0.02 0.03 0.04 0.04 0.05 0.05 0.05
0.00 0.00 0.00 0.00 0.00 0.00 0.00 0.00 0.00 0.00 0.00 0.00 0.00 0.00 0.00 0.00 0.00 0.00 0.00 0.00 0.00 0.00 0.00 0.00 0.00 0.00 0.00 0.00 0.00 0.00 0.00 0.00 0.00 0.00 0.01 0.01 0.02 0.03 0.03 0.02 0.01 0.01 0.02
0.00 0.00 0.00 0.00 0.00 0.00 0.00 0.00 0.00 0.00 0.00 0.00 0.00 0.00 0.00 0.00 0.00 0.00 0.00 0.00 0.00 0.00 0.00 0.00 0.00 0.00 0.00 0.00 0.00 0.00 0.00 0.01 0.01 0.01 0.01 0.02 0.02 0.02 0.02 0.02 0.02 0.01 0.01
0.00 0.00 0.00 0.00 0.00 0.00 0.00 0.00 0.00 0.00 0.00 0.00 0.00 0.00 0.00 0.00 0.00 0.00 0.00 0.00 0.00 0.00 0.00 0.00 0.00 0.00 0.00 0.00 0.00 0.00 0.00 0.00 0.01 0.00 0.00 0.00 0.01 0.01 0.01 0.01 0.01 0.02 0.01
0.00 0.00 0.00 0.00 0.00 0.00 0.00 0.00 0.00 0.00 0.00 0.00 0.00 0.00 0.00 0.00 0.00 0.00 0.00 0.00 0.00 0.00 0.00 0.00 0.00 0.00 0.00 0.00 0.00 0.00 0.00 0.00 0.00 0.00 0.00 0.00 0.00 0.01 0.01 0.01 0.01 0.02 0.01
0.00 0.00 0.00 0.00 0.00 0.00 0.00 0.00 0.00 0.00 0.00 0.00 0.00 0.00 0.00 0.00 0.00 0.00 0.00 0.00 0.00 0.00 0.00 0.00 0.00 0.00 0.00 0.00 0.00 0.00 0.00 0.00 0.00 0.00 0.00 0.00 0.00 0.00 0.01 0.01 0.01 0.00 0.00
0.00 0.00 0.00 0.00 0.00 0.00 0.00 0.00 0.00 0.00 0.00 0.00 0.00 0.00 0.00 0.00 0.00 0.00 0.00 0.00 0.00 0.00 0.00 0.00 0.00 0.00 0.00 0.00 0.00 0.00 0.00 0.00 0.00 0.00 0.00 0.00 0.00 0.00 0.00 0.00 0.00 0.00 0.00
0.00 0.00 0.00 0.00 0.00 0.00 0.00 0.00 0.00 0.00 0.00 0.00 0.00 0.00 0.00 0.00 0.00 0.00 0.00 0.00 0.00 0.00 0.00 0.00 0.00 0.00 0.00 0.00 0.00 0.00 0.00 0.00 0.00 0.00 0.01 0.00 0.00 0.00 0.00 0.00 0.00 0.00 0.00
0.00 0.00 0.00 0.00 0.00 0.00 0.00 0.00 0.00 0.00 0.00 0.00 0.00 0.00 0.00 0.00 0.00 0.00 0.00 0.00 0.00 0.00 0.00 0.00 0.00 0.00 0.00 0.00 0.00 0.00 0.00 0.00 0.00 0.01 0.02 0.01 0.01 0.01 0.01 0.01 0.02 0.01 0.00
0.00 0.00 0.00 0.00 0.00 0.00 0.00 0.00 0.00 0.00 0.00 0.00 0.00 0.00 0.00 0.00 0.00 0.00 0.00 0.00 0.00 0.00 0.00 0.00 0.00 0.00 0.00 0.00 0.00 0.00 0.00 0.00 0.00 0.01 0.01 0.01 0.01 0.00 0.00 0.00 0.01 0.00 0.00
MSLP
1003.56 1003.56 1003.84 1004.70 1005.21 1005.20 1005.84 1006.66 1007.14 1007.26 1007.29 1007.25 1007.66 1007.93 1008.63 1009.09 1009.41 1009.74 1010.35 1010.62 1010.82 1011.25 1011.69 1011.88 1011.93 1011.97 1012.16 1012.47 1012.97 1013.13 1013.25 1013.39 1013.64 1013.79 1013.76 1013.56 1013.68 1013.58 1013.57 1013.67 1013.88 1014.16 1014.45
1003.29 1003.96 1004.35 1005.59 1006.25 1006.68 1007.38 1006.21 1006.89 1007.01 1007.20 1007.51 1007.40 1007.46 1007.80 1008.56 1008.97 1009.22 1009.84 1010.10 1010.44 1010.85 1011.15 1011.60 1011.76 1011.82 1012.00 1012.14 1012.62 1013.00 1012.94 1013.01 1013.26 1013.32 1013.41 1013.39 1013.63 1013.76 1013.83 1014.06 1014.10 1014.28 1014.43
1002.22 1004.60 1005.26 1004.60 1005.75 1008.08 1006.54 1005.67 1005.62 1006.58 1006.55 1007.34 1007.27 1007.25 1007.49 1008.09 1008.67 1008.67 1009.30 1009.64 1009.91 1010.30 1010.54 1010.90 1011.11 1011.47 1011.79 1011.87 1011.93 1012.19 1012.54 1012.73 1012.94 1013.15 1013.15 1013.01 1013.13 1013.51 1013.84 1013.98 1014.04 1014.15 1014.20
1003.06 1003.61 1004.33 1004.71 1006.40 1007.62 1005.85 1004.00 1005.41 1005.99 1005.98 1006.50 1006.61 1007.44 1007.11 1007.73 1008.29 1008.18 1008.89 1009.24 1009.21 1009.54 1010.04 1010.27 1010.68 1010.97 1011.20 1011.58 1011.69 1011.72 1011.83 1012.23 1012.55 1012.62 1012.82 1012.93 1012.95 1013.21 1013.33 1013.77 1014.10 1014.02 1014.05
1003.65 1002.83 1003.30 1004.84 1005.93 1006.79 1006.61 1004.89 1005.44 1006.04 1005.80 1006.37 1007.05 1006.93 1007.09 1007.58 1007.65 1007.74 1008.34 1008.81 1008.85 1008.92 1009.47 1009.81 1009.88 1010.16 1010.31 1010.82 1011.29 1011.30 1011.60 1011.65 1011.98 1012.29 1012.58 1012.61 1012.67 1012.89 1012.95 1013.28 1013.60 1013.95 1014.05
1004.06 1003.83 1004.52 1005.44 1005.56 1005.63 1005.22 1005.47 1006.26 1006.37 1006.47 1006.93 1007.08 1007.22 1007.26 1006.96 1006.76 1007.18 1007.86 1008.11 1008.53 1008.46 1008.97 1009.08 1009.31 1009.54 1009.57 1010.03 1010.51 1010.45 1010.63 1010.93 1011.26 1011.76 1011.94 1011.92 1012.02 1012.22 1012.54 1013.00 1013.48 1013.85 1014.07
1004.25 1004.70 1004.90 1004.74 1005.19 1004.88 1005.27 1005.50 1005.84 1006.28 1006.43 1006.64 1006.80 1006.61 1006.66 1006.53 1006.26 1007.00 1007.37 1007.58 1007.79 1007.95 1008.32 1008.25 1008.92 1009.03 1009.02 1009.37 1009.77 1010.05 1010.15 1010.25 1010.16 1010.56 1011.26 1011.17 1011.13 1011.21 1011.78 1012.46 1012.79 1013.05 1013.05
1004.99 1004.81 1004.84 1004.75 1004.99 1004.78 1005.36 1005.61 1005.84 1005.73 1005.95 1005.79 1005.60 1005.42 1006.07 1006.06 1006.57 1007.08 1007.45 1007.65 1007.39 1007.53 1007.62 1007.69 1008.13 1008.32 1008.52 1008.88 1009.35 1009.72 1009.67 1009.78 1009.90 1009.95 1010.14 1010.10 1010.12 1010.35 1010.75 1011.03 1011.56 1012.16 1012.45
1005.23 1005.29 1005.12 1004.90 1005.16 1004.91 1005.36 1005.65 1005.55 1005.15 1005.36 1004.98 1004.99 1005.04 1005.19 1005.40 1006.24 1006.74 1007.26 1007.48 1007.46 1007.39 1007.24 1007.69 1007.66 1007.88 1008.12 1008.39 1009.07 1009.41 1009.24 1009.19 1009.13 1009.44 1009.31 1009.31 1009.52 1009.82 1010.14 1010.97 1011.69 1012.18 1012.32
1005.80 1005.72 1005.31 1004.80 1004.93 1005.25 1005.19 1005.30 1005.14 1004.93 1004.70 1004.61 1004.92 1004.88 1004.92 1005.28 1005.83 1006.29 1006.91 1007.01 1007.03 1007.07 1007.08 1006.77 1007.03 1007.23 1007.56 1007.83 1008.40 1008.72 1009.03 1008.75 1008.97 1009.24 1009.40 1009.33 1009.39 1009.70 1009.82 1009.93 1010.60 1011.28 1011.53
1006.11 1005.82 1005.39 1005.19 1005.48 1005.37 1005.28 1005.17 1004.78 1004.65 1004.49 1004.50 1004.85 1004.94 1005.26 1005.42 1005.77 1006.19 1006.15 1006.38 1006.35 1006.71 1006.69 1006.75 1006.45 1006.84 1006.96 1007.32 1007.56 1007.67 1007.77 1007.80 1008.16 1008.55 1008.71 1008.91 1009.17 1009.31 1009.50 1009.61 1009.91 1010.21 1010.72
1006.44 1006.15 1005.85 1005.67 1005.76 1005.53 1005.21 1004.82 1004.66 1004.65 1004.89 1005.00 1004.94 1005.18 1005.21 1005.44 1005.64 1005.53 1005.84 1006.14 1006.37 1006.48 1006.37 1006.06 1005.84 1006.39 1005.97 1006.63 1007.39 1007.20 1007.29 1007.51 1007.54 1007.84 1008.36 1008.64 1008.80 1008.88 1008.98 1009.10 1009.21 1009.41 1009.47
1006.77 1006.54 1006.17 1005.87 1005.70 1005.45 1005.35 1005.22 1005.12 1005.15 1005.27 1005.57 1005.72 1005.84 1005.94 1005.88 1005.79 1005.95 1005.82 1005.89 1005.87 1006.24 1006.06 1005.95 1006.01 1006.26 1006.33 1006.31 1006.13 1006.86 1007.04 1007.23 1007.18 1007.35 1007.37 1007.47 1007.48 1007.50 1008.01 1008.61 1008.89 1009.29 1009.54
1007.27 1006.94 1006.74 1006.52 1006.32 1006.06 1005.75 1005.57 1005.53 1005.57 1005.64 1005.76 1005.99 1006.28 1006.24 1006.33 1006.66 1006.87 1006.86 1006.99 1006.89 1006.61 1006.59 1006.66 1006.24 1005.98 1006.09 1005.84 1005.87 1006.22 1006.27 1006.29 1006.22 1006.41 1006.24 1006.18 1006.53 1007.11 1007.51 1007.81 1008.35 1008.63 1009.46
1007.15 1007.09 1007.01 1006.96 1006.64 1006.22 1005.96 1005.85 1005.63 1005.49 1005.58 1005.86 1006.03 1006.20 1006.54 1006.74 1006.99 1007.17 1007.23 1007.34 1007.15 1007.06 1006.89 1006.52 1006.14 1005.88 1005.62 1005.44 1005.23 1005.21 1005.37 1005.64 1005.71 1005.64 1005.56 1005.70 1005.96 1006.23 1006.31 1006.82 1007.33 1007.85 1008.12
1007.39 1007.06 1006.94 1006.70 1006.24 1006.07 1005.97 1005.47 1005.14 1005.14 1005.25 1005.44 1005.72 1005.92 1006.31 1006.32 1006.41 1006.81 1007.30 1007.22 1007.13 1006.92 1006.60 1006.27 1005.79 1005.36 1004.85 1004.48 1004.59 1004.47 1004.54 1004.48 1004.62 1004.94 1004.84 1004.98 1005.12 1005.29 1005.42 1005.84 1006.30 1006.70 1007.27
1007.69 1007.24 1007.06 1006.74 1006.50 1006.25 1005.96 1005.89 1005.79 1005.53 1005.82 1006.00 1005.96 1006.23 1006.38 1006.33 1006.67 1006.95 1006.90 1006.88 1006.83 1006.84 1006.71 1006.13 1005.59 1005.12 1004.39 1004.07 1003.86 1003.77 1003.73 1003.60 1003.60 1003.98 1004.13 1003.93 1004.10 1004.38 1004.60 1004.74 1005.17 1005.63 1006.25
1007.67 1007.27 1007.08 1006.76 1006.41 1006.13 1006.08 1005.87 1005.96 1006.14 1006.07 1006.22 1006.30 1006.40 1006.38 1006.39 1006.76 1006.97 1006.60 1006.45 1006.56 1006.55 1006.18 1005.65 1005.08 1004.34 1003.75 1003.32 1002.97 1002.85 1002.65 1002.73 1002.84 1002.93 1002.98 1002.91 1003.06 1003.07 1003.35 1003.68 1003.91 1004.54 1005.23
1007.58 1007.32 1007.17 1006.48 1006.08 1005.90 1005.56 1005.31 1005.31 1005.58 1005.77 1005.97 1006.17 1006.38 1006.17 1006.20 1006.21 1006.35 1006.47 1006.28 1006.22 1006.01 1005.36 1004.82 1004.22 1003.59 1003.03 1002.66 1002.41 1002.13 1001.90 1001.74 1001.86 1001.91 1001.79 1001.80 1002.01 1002.07 1002.10 1002.62 1002.97 1003.57 1004.29
1007.60 1007.12 1007.02 1006.68 1006.29 1005.86 1005.64 1005.46 1005.24 1005.34 1005.50 1005.74 1005.97 1006.24 1006.20 1006.35 1006.58 1006.58 1006.37 1006.11 1005.90 1005.44 1004.98 1004.38 1003.65 1003.10 1002.37 1001.97 1001.77 1001.45 1001.18 1000.99 1000.85 1000.78 1000.78 1001.00 1000.71 1001.00 1001.36 1001.35 1002.00 1002.78 1003.30
1007.87 1007.39 1007.03 1006.97 1006.57 1006.13 1005.91 1005.76 1005.85 1005.83 1005.75 1005.82 1006.12 1006.30 1006.36 1006.40 1006.23 1006.14 1006.07 1005.81 1005.53 1004.93 1004.58 1004.11 1003.35 1002.64 1001.99 1001.34 1001.26 1000.93 1000.65 1000.38 1000.14 1000.16 1000.11 999.93 1000.03 1000.20 1000.59 1000.91 1000.67 1001.47 1002.58
1007.54 1007.22 1007.17 1006.81 1006.40 1006.31 1006.06 1005.92 1005.94 1005.95 1006.01 1006.07 1006.20 1006.29 1006.24 1006.31 1006.04 1005.98 1005.83 1005.46 1005.19 1004.95 1004.51 1004.18 1003.49 1003.00 1002.28 1001.69 1001.00 1000.56 1000.30 999.91 999.45 999.33 999.43 999.26 999.56 999.66 1000.04 1000.32 1000.52 1001.11 1001.85
1007.33 1007.22 1007.06 1006.51 1006.16 1006.04 1006.04 1005.86 1005.91 1005.75 1005.75 1005.84 1005.70 1005.64 1005.82 1005.88 1005.74 1005.71 1005.51 1005.09 1004.75 1004.71 1004.52 1003.88 1003.56 1003.30 1002.81 1002.07 1001.18 1000.72 1000.54 999.83 999.44 998.95 999.09 998.99 999.11 999.06 999.35 999.97 1000.36 1000.88 1001.42
1006.93 1006.85 1006.56 1006.24 1005.84 1005.56 1005.56 1005.45 1005.40 1005.28 1005.38 1005.37 1005.32 1005.47 1005.42 1005.37 1005.38 1005.24 1005.02 1004.87 1004.57 1004.32 1004.28 1003.97 1003.62 1003.54 1003.10 1002.74 1002.35 1001.71 1001.18 1000.72 1000.21 999.89 999.70 999.33 999.54 999.56 999.92 1000.41 1000.97 1001.25 1001.93
1006.51 1006.35 1006.13 1005.86 1005.46 1005.15 1005.06 1005.00 1004.88 1004.82 1004.80 1004.89 1004.85 1004.93 1004.94 1004.89 1004.78 1004.80 1004.75 1004.50 1004.35 1004.08 1003.85 1003.72 1003.74 1003.48 1003.38 1003.00 1002.86 1002.59 1002.26 1001.41 1001.18 1000.82 1000.65 1000.48 1000.66 1000.57 1000.87 1001.40 1002.11 1002.45 1003.13
1006.28 1006.11 1005.73 1005.23 1004.91 1004.60 1004.41 1004.48 1004.29 1004.24 1004.19 1004.31 1004.22 1003.93 1004.03 1004.29 1004.50 1004.44 1004.22 1004.15 1004.04 1003.88 1003.78 1003.76 1003.66 1003.59 1003.41 1003.15 1002.65 1002.54 1002.65 1002.76 1002.08 1001.33 1001.24 1001.44 1001.48 1002.13 1002.13 1002.09 1002.92 1003.12 1003.74
Thickness
5780 5782 5783 5777 5774 5775 5768 5765 5764 5768 5771 5772 5771 5771 5765 5763 5762 5760 5754 5752 5751 5746 5743 5742 5742 5743 5741 5739 5734 5732 5730 5727 5722 5725 5728 5733 5732 5734 5735 5735 5735 5734 5731
5769 5764 5766 5761 5740 5743 5741 5756 5755 5758 5760 5761 5761 5764 5766 5761 5759 5758 5752 5751 5750 5744 5744 5741 5740 5740 5738 5738 5735 5730 5730 5729 5725 5720 5723 5726 5725 5727 5728 5728 5727 5725 5725
5772 5752 5748 5754 5722 5712 5742 5736 5756 5751 5754 5748 5746 5750 5757 5754 5752 5757 5750 5748 5749 5745 5742 5740 5741 5739 5734 5734 5735 5733 5731 5728 5726 5723 5722 5725 5726 5725 5723 5723 5723 5723 5723
5760 5754 5745 5741 5720 5710 5740 5752 5746 5747 5751 5734 5736 5738 5747 5747 5745 5753 5745 5744 5749 5747 5741 5740 5738 5739 5737 5732 5732 5732 5732 5729 5726 5725 5724 5723 5724 5724 5724 5721 5718 5719 5718
5738 5733 5741 5734 5724 5718 5723 5745 5741 5734 5740 5732 5727 5736 5738 5737 5742 5747 5742 5740 5744 5746 5742 5740 5741 5740 5742 5735 5729 5730 5727 5728 5725 5722 5721 5722 5721 5722 5723 5720 5717 5712 5711
5734 5736 5735 5726 5728 5729 5731 5730 5723 5725 5729 5727 5726 5726 5728 5734 5741 5741 5736 5739 5738 5743 5739 5742 5739 5736 5739 5737 5733 5733 5731 5726 5724 5720 5719 5720 5722 5721 5720 5716 5711 5707 5703
5731 5728 5729 5732 5727 5728 5722 5722 5723 5721 5721 5721 5717 5724 5726 5728 5736 5731 5730 5734 5735 5738 5737 5743 5736 5736 5736 5734 5732 5729 5728 5728 5729 5724 5717 5719 5721 5721 5719 5712 5710 5708 5706
5717 5722 5725 5726 5724 5728 5721 5717 5717 5722 5722 5725 5729 5732 5723 5724 5723 5722 5722 5724 5730 5731 5735 5738 5736 5737 5734 5731 5728 5724 5725 5725 5726 5725 5722 5723 5722 5723 5721 5719 5715 5709 5706
5714 5715 5717 5721 5720 5724 5720 5716 5718 5722 5721 5729 5729 5728 5726 5727 5722 5719 5718 5716 5718 5722 5729 5729 5732 5733 5732 5729 5723 5718 5720 5722 5724 5720 5722 5723 5722 5719 5717 5712 5703 5699 5696
5706 5708 5714 5719 5718 5716 5718 5716 5716 5718 5720 5725 5721 5724 5725 5723 5721 5717 5714 5717 5717 5719 5720 5727 5728 5729 5727 5726 5725 5719 5712 5717 5719 5717 5716 5716 5718 5716 5711 5711 5706 5700 5696
5700 5704 5708 5709 5709 5710 5709 5710 5713 5716 5717 5717 5715 5717 5715 5714 5714 5714 5714 5715 5717 5715 5718 5720 5724 5721 5721 5721 5720 5722 5718 5717 5716 5713 5711 5710 5708 5709 5708 5707 5705 5702 5693
5693 5697 5697 5698 5698 5700 5702 5707 5709 5709 5707 5707 5706 5706 5709 5707 5707 5711 5709 5708 5708 5710 5713 5716 5719 5715 5721 5715 5712 5714 5710 5710 5712 5709 5705 5702 5702 5702 5702 5701 5702 5699 5696
5684 5685 5688 5691 5691 5693 5692 5692 5694 5697 5696 5694 5692 5691 5692 5695 5698 5696 5700 5702 5703 5701 5705 5706 5706 5705 5705 5710 5711 5703 5703 5703 5705 5704 5705 5705 5704 5704 5703 5696 5693 5688 5686
5671 5674 5676 5678 5680 5681 5682 5683 5683 5684 5685 5685 5682 5680 5683 5684 5682 5683 5683 5683 5686 5690 5690 5690 5693 5695 5697 5700 5702 5700 5700 5701 5704 5703 5706 5708 5703 5698 5695 5693 5688 5685 5676
5667 5667 5667 5667 5669 5672 5674 5675 5676 5677 5677 5674 5674 5674 5673 5674 5673 5669 5669 5668 5670 5672 5674 5678 5682 5684 5688 5690 5693 5696 5698 5697 5699 5701 5702 5701 5700 5696 5695 5690 5686 5682 5679
5660 5663 5663 5664 5669 5670 5670 5673 5674 5674 5671 5669 5668 5668 5666 5666 5665 5659 5656 5657 5658 5661 5668 5671 5676 5680 5685 5689 5690 5693 5695 5696 5695 5692 5695 5696 5695 5694 5691 5687 5684 5681 5674
5652 5658 5658 5661 5662 5664 5664 5664 5662 5664 5659 5656 5658 5656 5656 5657 5652 5649 5650 5649 5650 5652 5655 5660 5667 5671 5679 5682 5686 5687 5688 5689 5688 5687 5686 5690 5690 5688 5686 5685 5683 5677 5672
5649 5653 5654 5656 5658 5659 5659 5660 5656 5653 5653 5656 5649 5647 5645 5644 5641 5639 5642 5643 5648 5643 5647 5654 5659 5667 5673 5677 5681 5683 5685 5684 5683 5685 5685 5687 5685 5687 5684 5681 5681 5676 5670
5646 5647 5647 5653 5654 5655 5657 5658 5657 5653 5651 5649 5645 5640 5639 5637 5636 5633 5631 5636 5637 5640 5645 5648 5652 5659 5665 5668 5671 5675 5678 5680 5679 5679 5683 5683 5682 5682 5682 5679 5676 5669 5665
5639 5644 5644 5645 5648 5650 5651 5649 5649 5647 5644 5641 5639 5635 5632 5628 5625 5624 5625 5626 5626 5629 5631 5636 5642 5647 5653 5658 5662 5666 5670 5671 5674 5676 5676 5675 5680 5678 5676 5678 5672 5663 5661
5629 5633 5637 5634 5636 5639 5639 5639 5636 5634 5632 5629 5623 5620 5616 5617 5617 5614 5612 5613 5615 5620 5620 5622 5628 5633 5638 5645 5648 5651 5656 5661 5665 5666 5667 5670 5671 5670 5668 5666 5669 5665 5656
5627 5628 5626 5628 5630 5628 5628 5627 5624 5622 5620 5616 5611 5607 5600 5600 5602 5601 5600 5600 5601 5602 5604 5606 5612 5616 5621 5626 5633 5638 5642 5646 5653 5657 5658 5661 5659 5661 5659 5657 5656 5651 5646
5620 5619 5618 5621 5623 5621 5618 5616 5613 5611 5608 5604 5602 5601 5595 5593 5591 5589 5588 5589 5590 5588 5589 5595 5598 5600 5603 5610 5617 5621 5625 5631 5635 5641 5642 5645 5648 5651 5650 5647 5646 5641 5638
5614 5612 5613 5613 5613 5612 5610 5609 5606 5602 5599 5597 5593 5588 5585 5585 5583 5582 5580 5579 5580 5579 5578 5579 5583 5585 5588 5591 5594 5599 5603 5609 5615 5619 5623 5627 5630 5632 5632 5629 5627 5626 5623
5607 5606 5605 5606 5607 5607 5603 5600 5598 5595 5592 5588 5586 5581 5579 5577 5576 5573 5571 5571 5570 5571 5571 5571 5571 5574 5575 5579 5579 5579 5580 5589 5594 5597 5602 5605 5607 5610 5605 5605 5602 5598 5596
5599 5598 5598 5599 5599 5597 5596 5592 5592 5589 5586 5582 5581 5580 5577 5570 5566 5564 5564 5563 5562 5562 5561 5561 5561 5562 5563 5566 5570 5570 5568 5568 5575 5581 5584 5586 5588 5582 5587 5582 5578 5577 5572